#timestamp,LO_Frequency,Hit,StdDev 
1576742415.9,286047005.6,Y
1576742435.7,286047005.5,P
1576742455.6,286047004.8,N
1576742475.4,286047005.9,P
1576742495.2,286047004.0,N
1576742515.1,286047001.5,N
1576742516.0,286047001.5,N
1576742535.8,286047001.3,N
1576742555.6,286047002.7,N
1576742575.5,286047002.1,N
1576742595.3,286047002.8,N
1576742615.2,286046999.8,N
1576742635.9,286046999.7,N
1576742655.7,286047000.5,N
1576742675.6,286047000.1,N
1576742695.4,286047002.4,N
1576742715.2,286047004.4,N
1576742735.1,286047003.8,N
1576742736.0,286047003.8,N
1576742755.8,286047001.8,N
1576742775.7,286047002.2,N
1576742795.5,286047001.4,N
1576742815.3,286047003.9,N
1576742835.2,286047005.6,Y
1576742855.0,286047002.6,P
1576742855.9,286047002.6,P
1576742875.8,286047002.4,P
1576742895.6,286047002.0,Y
1576742915.4,286046999.1,P
1576742935.3,286046996.7,N
1576742955.1,286046997.3,N
1576742975.8,286046997.7,N
1576742995.7,286046998.0,N
1576743015.5,286046997.4,N
1576743035.3,286046999.1,N
1576743055.2,286046998.7,N
1576743075.0,286046999.9,N
1576743075.9,286046999.9,N
1576743095.8,286047000.8,N
1576743115.6,286046998.6,N
1576743135.4,286046999.2,N
1576743155.3,286046996.8,N
1576743175.1,286046996.7,N
1576743195.8,286046997.5,N
1576743215.7,286046995.3,Y
1576743235.5,286046997.4,P
1576743255.4,286046995.0,P
1576743275.2,286046997.3,N
1576743295.0,286046998.0,N
1576743295.9,286046998.0,N
1576743315.8,286046995.1,Y
1576743335.6,286047000.5,P
1576743355.5,286046998.6,N
1576743375.3,286047001.0,N
1576743395.1,286047000.5,N
1576743415.9,286047000.6,N
1576743435.7,286046998.2,N
1576743455.5,286047000.3,N
1576743475.4,286047000.7,N
1576743495.2,286047000.7,N
1576743515.0,286046999.4,N
1576743516.0,286046999.4,N
1576743535.8,286046998.1,N
1576743555.6,286047000.5,N
1576743575.5,286047000.2,N
1576743595.3,286047002.3,N
1576743615.1,286047002.7,N
1576743635.9,286046999.9,N
1576743655.7,286047000.7,N
1576743675.5,286046998.7,N
1576743695.4,286046998.8,N
1576743715.2,286046999.1,N
1576743735.1,286046999.6,N
1576743736.0,286046999.6,N
1576743755.8,286046998.8,N
1576743775.6,286046998.1,N
1576743795.5,286047000.8,N
1576743815.3,286046998.2,N
1576743835.1,286046999.3,N
1576743855.9,286047001.1,N
1576743875.7,286046998.2,N
1576743895.6,286046998.8,N
1576743915.4,286046998.1,N
1576743935.2,286046999.4,N
1576743955.1,286046997.0,N
1576743956.0,286046997.0,N
1576743975.8,286046997.0,N
1576743995.6,286046999.6,N
1576744015.5,286046999.0,N
1576744035.3,286047000.4,N
1576744055.2,286047000.3,N
1576744075.9,286047001.2,N
1576744095.7,286046998.1,N
1576744115.6,286047000.6,N
1576744135.4,286046998.5,N
1576744155.3,286047000.4,N
1576744175.1,286046998.6,N
1576744176.0,286046998.6,N
1576744195.8,286047001.2,N
1576744215.7,286046999.0,N
1576744235.5,286046999.4,N
1576744255.3,286046998.7,N
1576744275.2,286047000.8,N
1576744295.0,286047001.2,N
1576744295.9,286047001.2,N
1576744315.8,286047000.3,N
1576744335.6,286047000.7,N
1576744355.4,286047001.0,N
1576744375.3,286047000.8,N
1576744395.1,286047001.0,N
1576744415.9,286046999.4,N
1576744435.7,286046998.7,N
1576744455.5,286046997.0,N
1576744475.4,286046997.1,N
1576744495.2,286046997.3,N
1576744515.0,286046997.1,N
1576744515.9,286046997.1,N
1576744535.8,286046997.6,N
1576744555.6,286046997.2,N
1576744575.5,286046997.7,N
1576744595.3,286046995.7,N
1576744615.1,286046995.8,N
1576744635.9,286046995.6,N
1576744655.7,286046998.0,N
1576744675.5,286046995.4,N
1576744695.4,286046996.6,N
1576744715.2,286046996.8,N
1576744735.1,286046996.7,N
1576744736.0,286046996.7,N
1576744755.8,286046997.8,N
1576744775.6,286046996.6,N
1576744795.5,286046997.6,N
1576744815.3,286046995.2,N
1576744835.1,286046994.9,N
1576744855.9,286046995.3,N
1576744875.7,286046995.8,N
1576744895.6,286046995.8,N
1576744915.4,286046998.0,N
1576744935.2,286046995.2,Y
1576744955.1,286047000.0,P
1576744956.0,286047000.0,N
1576744975.8,286047000.7,N
1576744995.6,286046998.8,N
1576745015.5,286047000.4,N
1576745035.3,286046999.8,N
1576745055.2,286047000.3,N
1576745075.9,286047002.4,N
1576745095.7,286047001.5,N
1576745115.6,286047000.5,N
1576745135.4,286047000.1,N
1576745155.2,286046999.7,N
1576745175.1,286047002.7,N
1576745176.0,286047002.7,N
1576745195.8,286047001.0,N
1576745215.7,286047000.6,N
1576745235.5,286046999.7,N
1576745255.3,286047002.5,N
1576745275.2,286047002.5,N
1576745295.9,286047000.6,N
1576745315.7,286047000.3,N
1576745335.6,286047000.8,N
1576745355.4,286046999.9,N
1576745375.2,286046999.9,N
1576745395.1,286047000.2,N
1576745396.0,286047000.2,N
1576745415.8,286047002.2,N
1576745435.7,286047001.4,N
1576745455.5,286047004.0,Y
1576745475.3,286047001.9,P
1576745495.2,286047000.9,N
1576745515.0,286047002.3,P
1576745515.9,286047002.3,Y
1576745535.8,286047001.1,P
1576745555.6,286046998.5,P
1576745575.4,286046998.8,N
1576745595.3,286046998.4,N
1576745615.1,286046998.9,N
1576745635.8,286047001.0,N
1576745655.7,286046998.2,N
1576745675.5,286046998.1,N
1576745695.4,286046998.1,N
1576745715.2,286047000.3,N
1576745735.0,286046999.8,N
1576745735.9,286046999.8,N
1576745755.8,286047000.0,N
1576745775.6,286046999.8,N
1576745795.4,286047002.2,N
1576745815.3,286047002.2,N
1576745835.1,286047002.5,N
1576745855.9,286047000.0,N
1576745875.7,286046999.9,N
1576745895.5,286047002.7,N
1576745915.4,286047002.6,N
1576745935.2,286046999.8,N
1576745955.0,286047002.4,N
1576745955.9,286047002.4,N
1576745975.8,286047002.8,N
1576745995.6,286047001.8,N
